{"data":{"norad_id":29709,"intl_designator":"2007-001A","name":"LAPAN-TUBSAT","alt_names":[],"object_type":"PAYLOAD","status":"ACTIVE","operator":null,"country":"INDO","launch_date":"2007-01-10","launch_site_code":"SRILR","launch_vehicle":null,"mission":null,"orbit_class":"UNKNOWN","rcs_meters":0.363,"size_class":null,"mass_kg":null,"dimensions":null,"purposes":["earth_obs"],"wikipedia_slug":null,"has_3d_model":false,"image_url":null,"decayed_at":null,"tle_current":{"epoch":"2026-09-19T22:17:29.556384Z","epoch_age_seconds":63712,"freshness":"FRESH","line1":"1 29709U 07001A   26262.92881431  .00000100  00000+0  18050-4 0  9997","line2":"2 29709  98.1413 264.3242 0010812 234.4664 125.5543 14.86030068 65225","mean_motion":14.86030068,"eccentricity":0.0010812,"inclination_deg":98.1413,"raan_deg":264.3242,"arg_perigee_deg":234.4664,"mean_anomaly_deg":125.5543,"bstar":1.805e-5,"rev_number":6522,"period_min":96.902480710774,"perigee_km":602.7985765985,"apogee_km":617.91049069085,"semimajor_km":6988.4915336447,"source":"CELESTRAK","updated_at":"2026-09-20T09:00:33.885975Z"}}}